IAVONS21 Weather Reports


time (UTC)temp
C
wind
direction
speed
KPH
gust
KPH
rain 1hr
cm
rain 24hr
cm
rain mn
cm
humidity
%
barometer
mb
20260504035510 13 281 17.7 37.0 0.00 0.84 0.48 61 1013.0
20260504035009 13 261 16.1 37.0 0.00 0.84 0.48 63 1012.9
20260504034521 13 294 19.3 35.4 0.00 0.84 0.48 63 1012.8
20260504034011 13 276 20.9 35.4 0.00 0.84 0.48 66 1012.8
20260504033502 13 264 12.9 30.6 0.00 0.84 0.48 68 1013.0
20260504033024 13 279 19.3 30.6 0.00 0.84 0.48 68 1013.0
20260504032503 13 283 16.1 30.6 0.00 0.84 0.48 67 1013.1
20260504032006 13 266 12.9 30.6 0.00 0.84 0.48 69 1013.0
20260504031507 13 259 20.9 40.2 0.00 0.84 0.48 67 1012.9
20260504031008 13 264 20.9 40.2 0.00 0.84 0.48 67 1013.2
20260504030508 13 329 17.7 32.2 0.00 0.84 0.48 66 1013.2
20260504030012 13 271 16.1 27.4 0.00 0.84 0.48 67 1013.2
20260504025508 13 265 11.3 32.2 0.00 0.84 0.48 69 1013.3
20260504025006 13 341 12.9 32.2 0.00 0.84 0.48 68 1013.4
20260504024518 13 314 16.1 32.2 0.00 0.84 0.48 69 1013.3
20260504024007 13 280 17.7 25.7 0.00 0.84 0.48 68 1013.4
20260504023507 13 327 11.3 20.9 0.00 0.84 0.48 70 1013.5
20260504023020 13 310 4.8 20.9 0.00 0.84 0.48 74 1013.6
20260504022509 13 270 8.0 20.9 0.00 0.84 0.48 74 1013.8
20260504022010 13 263 11.3 19.3 0.00 0.84 0.48 73 1013.6
20260504021504 12 274 8.0 25.7 0.00 0.84 0.48 74 1013.8
20260504021004 12 270 11.3 27.4 0.00 0.84 0.48 73 1013.8
20260504020503 12 328 12.9 27.4 0.00 0.84 0.48 73 1014.0
20260504020008 12 301 14.5 25.7 0.00 0.84 0.48 75 1014.1
20260504015504 12 299 6.4 24.1 0.00 0.84 0.48 78 1014.1
20260504015006 12 278 11.3 24.1 0.00 0.84 0.48 78 1014.2
20260504014513 12 258 11.3 25.7 0.00 0.84 0.48 77 1014.1
20260504014007 12 287 8.0 32.2 0.00 0.84 0.48 79 1014.4
20260504013507 12 316 11.3 32.2 0.00 0.84 0.48 79 1014.5
20260504013024 12 266 9.7 27.4 0.00 0.84 0.48 80 1014.5
20260504012510 11 318 9.7 27.4 0.00 0.84 0.48 80 1014.6
20260504012008 11 327 8.0 30.6 0.00 0.84 0.48 82 1014.8
20260504011527 11 302 12.9 30.6 0.00 0.84 0.48 80 1014.8
20260504011009 11 301 11.3 22.5 0.00 0.84 0.48 82 1014.9
20260504010509 11 282 12.9 25.7 0.00 0.84 0.48 82 1015.1
20260504010008 11 268 12.9 25.7 0.00 0.84 0.48 82 1015.1
20260504005504 11 274 12.9 30.6 0.00 0.84 0.48 82 1014.9
20260504005003 11 261 12.9 30.6 0.00 0.84 0.48 83 1015.1
20260504004510 12 263 11.3 25.7 0.00 0.84 0.48 84 1015.2
20260504004008 12 271 9.7 25.7 0.00 0.84 0.48 85 1015.4
20260504003508 11 321 8.0 17.7 0.00 0.84 0.48 84 1015.5
20260504003016 11 313 6.4 17.7 0.00 0.84 0.48 84 1015.4
20260504002507 11 303 8.0 17.7 0.00 0.84 0.48 84 1015.3
20260504002010 11 313 6.4 19.3 0.00 0.84 0.48 84 1015.3
20260504001524 11 349 6.4 19.3 0.00 0.84 0.48 84 1015.4
20260504001010 11 260 4.8 14.5 0.00 0.84 0.48 84 1015.5
20260504000509 11 313 3.2 12.9 0.00 0.84 0.48 86 1015.5
20260504000049 11 280 4.8 17.7 0.00 0.84 0.48 85 1015.5
20260503235510 11 285 8.0 17.7 0.00 0.84 0.48 84 1015.4
20260503235010 12 302 8.0 20.9 0.03 0.84 0.48 87 1015.5
20260503234511 12 346 6.4 20.9 0.03 0.84 0.48 87 1015.5
20260503234004 12 8 6.4 20.9 0.03 0.84 0.48 87 1015.8
20260503233510 12 289 4.8 20.9 0.03 0.84 0.48 89 1015.7
20260503233016 11 338 8.0 16.1 0.03 0.84 0.48 89 1015.7
20260503232505 11 346 8.0 20.9 0.03 0.84 0.48 90 1015.9
20260503232006 11 335 4.8 20.9 0.03 0.84 0.48 91 1015.8
20260503231516 11 321 9.7 17.7 0.03 0.84 0.48 90 1015.7
20260503231006 11 16 3.2 14.5 0.03 0.84 0.48 90 1015.3
20260503230509 11 295 3.2 14.5 0.00 0.81 0.46 90 1015.9
20260503230024 11 3 3.2 12.9 0.05 0.81 0.46 90 1015.8
20260503225510 11 299 4.8 12.9 0.05 0.81 0.46 89 1015.8
20260503225010 11 6 3.2 14.5 0.03 0.79 0.46 90 1015.8
20260503224526 11 324 4.8 16.1 0.03 0.79 0.46 90 1015.7
20260503224009 10 358 4.8 16.1 0.03 0.79 0.46 90 1015.7
20260503223511 10 334 3.2 16.1 0.03 0.79 0.46 90 1015.5
20260503223035 10 293 8.0 16.1 0.03 0.79 0.46 90 1015.6
20260503222507 10 323 4.8 14.5 0.03 0.79 0.46 90 1015.7
20260503222008 10 314 1.6 14.5 0.03 0.79 0.46 90 1015.7
20260503221517 10 296 4.8 16.1 0.03 0.79 0.46 90 1015.7
20260503221009 11 3 4.8 17.7 0.03 0.79 0.46 89 1015.7
20260503220509 11 330 6.4 17.7 0.03 0.79 0.46 89 1015.5
20260503220020 11 353 4.8 16.1 0.00 0.74 0.41 89 1015.4
20260503215512 11 320 4.8 12.9 0.00 0.74 0.41 90 1015.3
20260503215008 11 324 1.6 12.9 0.00 0.74 0.41 90 1015.3
20260503214527 11 339 3.2 12.9 0.00 0.74 0.41 90 1015.1
20260503214014 11 360 3.2 11.3 0.00 0.74 0.41 91 1015.1
20260503213514 11 14 3.2 12.9 0.00 0.74 0.41 92 1015.2
20260503213024 11 353 1.6 12.9 0.00 0.74 0.41 92 1015.1
20260503212508 10 358 3.2 12.9 0.00 0.74 0.41 92 1015.1
20260503212012 10 357 4.8 16.1 0.00 0.74 0.41 92 1015.1
20260503211527 10 3 4.8 16.1 0.00 0.74 0.41 92 1015.0
20260503211007 10 357 3.2 11.3 0.00 0.74 0.41 92 1015.0
20260503210511 10 302 1.6 12.9 0.00 0.74 0.41 91 1014.9
20260503210020 10 14 4.8 14.5 0.00 0.74 0.41 91 1014.8
20260503205509 10 337 4.8 14.5 0.00 0.74 0.41 91 1014.8
20260503205009 10 360 4.8 11.3 0.00 0.74 0.41 91 1014.8
20260503204522 10 358 3.2 16.1 0.00 0.74 0.41 91 1014.9
20260503204009 11 9 3.2 16.1 0.00 0.74 0.41 91 1014.8
20260503203513 10 358 4.8 14.5 0.00 0.74 0.41 91 1014.8
20260503203038 10 10 6.4 16.1 0.00 0.74 0.41 91 1014.7
20260503202511 10 29 6.4 16.1 0.00 0.74 0.41 91 1014.7
20260503202010 10 10 6.4 16.1 0.00 0.74 0.41 91 1014.6
20260503201532 10 16 6.4 16.1 0.00 0.74 0.41 91 1014.7
20260503201010 10 16 6.4 14.5 0.00 0.74 0.41 91 1014.8
20260503200511 10 33 3.2 9.7 0.00 0.74 0.41 91 1014.8
20260503200026 10 327 3.2 9.7 0.00 0.74 0.41 91 1014.8
20260503195512 10 348 1.6 8.0 0.00 0.74 0.41 90 1014.6
20260503195011 10 306 3.2 11.3 0.00 0.74 0.41 90 1014.6
20260503194522 10 351 3.2 12.9 0.00 0.74 0.41 90 1014.6
20260503194010 10 356 4.8 12.9 0.00 0.74 0.41 90 1014.4
20260503193505 10 353 4.8 14.5 0.00 0.74 0.41 90 1014.5
20260503193008 10 320 3.2 14.5 0.00 0.74 0.41 90 1014.3
20260503192504 10 20 4.8 17.7 0.00 0.74 0.41 90 1014.5
20260503192002 10 344 6.4 17.7 0.00 0.74 0.41 90 1014.3
20260503191510 10 314 4.8 17.7 0.00 0.74 0.41 89 1014.2
20260503191005 10 317 4.8 17.7 0.00 0.74 0.41 90 1014.2
20260503190507 10 10 4.8 14.5 0.00 0.74 0.41 90 1014.3
20260503190012 11 359 6.4 17.7 0.00 0.74 0.41 90 1014.3
20260503185507 11 40 4.8 17.7 0.00 0.74 0.41 90 1014.4
20260503185006 11 359 4.8 16.1 0.00 0.74 0.41 90 1014.3
20260503184519 11 8 4.8 16.1 0.00 0.74 0.41 90 1014.3
20260503184008 11 8 6.4 16.1 0.00 0.74 0.41 90 1014.3
20260503183511 11 336 9.7 17.7 0.00 0.74 0.41 90 1014.3
20260503183028 11 8 9.7 19.3 0.00 0.74 0.41 90 1014.2
20260503182513 11 8 8.0 20.9 0.00 0.74 0.41 90 1014.2
20260503182003 11 31 11.3 25.7 0.00 0.74 0.41 90 1014.2
20260503181505 10 18 11.3 25.7 0.00 0.74 0.41 90 1014.3
20260503181003 10 22 6.4 17.7 0.00 0.74 0.41 89 1014.3
20260503180508 10 8 6.4 17.7 0.00 0.74 0.41 90 1014.2
20260503180022 10 354 4.8 16.1 0.03 0.74 0.41 90 1014.3
20260503175507 10 321 3.2 17.7 0.05 0.74 0.41 90 1014.4
20260503175007 10 359 4.8 24.1 0.08 0.74 0.41 90 1014.5
20260503174516 10 54 8.0 24.1 0.08 0.74 0.41 90 1014.4
20260503174010 10 11 6.4 22.5 0.08 0.74 0.41 90 1014.5
20260503173508 10 355 9.7 22.5 0.08 0.74 0.41 90 1014.6
20260503173038 10 4 11.3 22.5 0.08 0.74 0.41 90 1014.6
20260503172510 10 16 4.8 11.3 0.08 0.74 0.41 90 1014.5
20260503172009 10 10 3.2 12.9 0.08 0.74 0.41 89 1014.5
20260503171533 10 339 4.8 12.9 0.08 0.74 0.38 89 1014.8
20260503171009 10 300 1.6 8.0 0.08 0.74 0.38 89 1014.8
20260503170509 10 2 1.6 14.5 0.10 0.74 0.38 88 1014.4
20260503151003 11 342 8.0 20.9 0.13 0.48 0.15 92 1016.2
20260503150503 11 299 6.4 17.7 0.13 0.46 0.13 92 1016.3
20260503131005 11 4 4.8 16.1 0.05 0.18 0.18 91 1017.0
20260503130502 11 338 6.4 16.1 0.05 0.18 0.18 91 1017.0
20260503110507 12 329 8.0 22.5 0.03 0.03 0.03 90 1017.7
20260503090507 13 333 8.0 17.7 0.00 0.00 0.00 85 1018.1
20260503081522 13 347 3.2 14.5 0.00 0.00 0.00 84 1017.9
20260503081010 13 317 8.0 16.1 0.00 0.00 0.00 84 1017.8
20260503080508 13 15 6.4 16.1 0.00 0.00 0.00 83 1017.8
20260503072510 13 341 3.2 17.7 0.00 0.00 0.00 81 1017.8
20260503072010 13 295 6.4 16.1 0.00 0.00 0.00 81 1017.7
20260503071517 13 320 4.8 29.0 0.00 0.00 0.00 80 1017.6
20260503071007 13 274 8.0 29.0 0.00 0.00 0.00 80 1017.7
20260503070507 13 303 6.4 29.0 0.00 0.00 0.00 80 1017.8
20260503055008 13 257 9.7 24.1 0.00 0.00 0.00 83 1018.2
20260503054520 13 283 8.0 22.5 0.00 0.00 0.00 83 1018.4
20260503054010 13 218 8.0 24.1 0.00 0.00 0.00 83 1018.4
20260503053507 13 283 8.0 30.6 0.00 0.00 0.00 83 1018.5
20260503053020 13 318 11.3 30.6 0.00 0.00 0.00 82 1018.6
20260503052506 14 291 8.0 24.1 0.00 0.00 0.00 82 1018.6
20260503052009 13 247 8.0 24.1 0.00 0.00 0.00 82 1018.5
20260503051525 13 309 6.4 20.9 0.00 0.00 0.00 83 1018.5
20260503051007 13 309 9.7 20.9 0.00 0.00 0.00 83 1018.6
20260503050506 13 343 8.0 20.9 0.00 0.00 0.00 84 1018.6
20260503050019 13 291 8.0 19.3 0.00 0.00 0.00 85 1018.6
20260503045507 13 299 6.4 19.3 0.00 0.00 0.00 85 1018.6
20260503045010 13 312 6.4 17.7 0.00 0.00 0.00 84 1018.6
20260503044528 13 247 8.0 19.3 0.00 0.00 0.00 83 1018.7
20260503044012 14 322 9.7 20.9 0.00 0.00 0.00 82 1018.6
20260503043510 14 344 8.0 20.9 0.00 0.00 0.00 81 1018.7
20260503043022 14 311 4.8 17.7 0.00 0.00 0.00 81 1018.6
20260503042510 13 312 6.4 22.5 0.00 0.00 0.00 81 1018.6
20260503042011 13 35 8.0 24.1 0.00 0.00 0.00 81 1018.6
20260503041522 13 274 11.3 25.7 0.00 0.00 0.00 80 1018.6
20260503041006 14 320 6.4 25.7 0.00 0.00 0.00 80 1018.8
20260503040508 14 274 6.4 24.1 0.00 0.00 0.00 79 1018.9
20260503040030 14 345 9.7 24.1 0.00 0.00 0.00 78 1018.8